Flag for U.S.A. Weather past 2 weeks in Compton, California, U.S.A.

Now
65 °F

Partly sunny.


Feels Like: 65 °F
Forecast: 58 / 67 °F
Wind: 12 mph from West

Location: Hawthorne Municipal Airport

Current Time: May 22, 2015 at 12:36:24 PM

Latest Report: May 22, 2015 at 11:53 AM


Visibility: 10 mi

Pressure: 30.03 "Hg

Humidity: 56%

Dew point: 49 °F

Location of ComptonLocation

Historic Weather in Compton — Graph

°F

Compton temperature yesterday

Maximum temperature yesterday: 68 °F (at 12:53 PM)
Minimum temperature yesterday: 59 °F (at 5:53 AM)
Average temperature yesterday: 63 °F

Past Weeks' High & Low Weather Summary

 TemperatureHumidityPressure
High71 °F (May 11, 11:53 AM)86% (May 8, 4:53 AM)30.08 "Hg (May 8, 4:53 AM)
Low52 °F (May 8, 4:53 AM)39% (May 12, 3:53 PM)29.81 "Hg (May 11, 6:53 PM)
Average62 °F67%29.96 "Hg
* Reported May 7 10:53 AM — May 22 10:53 AM, Compton, Weather by CustomWeather, © 2015

Note: Actual official high and low records may vary slightly from our data, if they occured in-between our weather recording intervals... More about our weather records

Advertising

Compton weather history for previous 24 hours

 ConditionsComfort  
Time TempWeatherWind HumidityBarometerVisibility
10:53 AM
Fri, May 22
64 °FScattered clouds.N/A61%30.03 "Hg10 mi
9:53 AM63 °FPartly sunny.9 mph63%30.03 "Hg10 mi
8:53 AM62 °FScattered clouds.12 mph62%30.02 "Hg10 mi
7:53 AM60 °FOvercast.12 mph67%30.01 "Hg10 mi
6:53 AM59 °FPassing clouds.7 mph75%30.00 "Hg10 mi
6:00 AM59 °FPassing clouds.8 mph72%29.90 "Hg10 mi
5:53 AM59 °FPassing clouds.8 mph72%29.98 "Hg10 mi
4:53 AM59 °FPassing clouds.10 mph72%29.98 "Hg10 mi
3:53 AM59 °FPassing clouds.8 mph78%29.97 "Hg10 mi
2:53 AM60 °FClear.10 mph78%29.98 "Hg10 mi
1:53 AM60 °FClear.5 mph75%29.98 "Hg10 mi
12:53 AM60 °FClear.10 mph75%29.98 "Hg10 mi
11:53 PM
Thu, May 21
61 °FOvercast.13 mph70%29.98 "Hg10 mi
10:53 PM62 °FClear.13 mph65%29.98 "Hg10 mi
9:53 PM61 °FClear.10 mph70%29.98 "Hg10 mi
8:53 PM62 °FClear.10 mph65%29.96 "Hg10 mi
7:53 PM63 °FSunny.10 mph63%29.96 "Hg10 mi
6:53 PM64 °FSunny.12 mph58%29.95 "Hg10 mi
5:53 PM66 °FSunny.13 mph52%29.93 "Hg10 mi
4:53 PM67 °FSunny.14 mph53%29.93 "Hg10 mi
3:53 PM67 °FSunny.14 mph51%29.94 "Hg10 mi
2:53 PM68 °FSunny.18 mph51%29.96 "Hg10 mi
1:53 PM68 °FSunny.12 mph53%29.96 "Hg10 mi
12:53 PM68 °FPassing clouds.10 mph51%29.96 "Hg10 mi
Weather by CustomWeather, © 2015

See weather overviewHow to use our weather pages